STARLINK-1656, 46353

Orbit data source: Space-Track

STARLINK-1656, 46353 is a payload satellite owned by SpaceX/Seattle (US) in LEO that was launched on Thu, 03 Sep 2020 UTC via an FALCON 9 launch vehicle from the Air Force Eastern Test Range (AFETR). Payloads include a variety of satellites, spacecraft, and rockets equipped with specific instruments for various scientific and technological missions. These include communications satellites like Starlink; space stations such as the ISS; scientific satellites like the Hubble; Earth observation satellites from companies like Planet Labs, Umbra, and HawkEye 360; GPS; miniature CubeSats for education and research; and military/defense satellites.

Loading next visibility...
STARLINK-1656 details
Identifier
46353, 2020-062AE
Orbit
LEO
Last TLE update22 hours ago
Origin
Flag of USSpaceX/Seattle (US)
ManufacturerSpaceX/Seattle
MissionOperational Commercial Communications
Bus & MotorSTARLINK, Unknown motor
Mass260 kg wet, ~248 kg dry
Launch date (UTC)
2020-09-03 (4 years ago)
Launch vehicle
FALCON 9
Launch site
Air Force Eastern Test Range (AFETR)
Object type
Payload
Rocket body
Debris
Shape & HBRBox + 1 Pan, 8.86 m
Radar Cross Section13.562 m², Large (>1 m²)

Expand to show TLE details & history

TLE from 22 hours ago
0 STARLINK-1656
1 46353U 20062AE  24360.52620505  .00000779  00000-0  71180-4 0  9995
2 46353  53.0534 188.0979 0001369  90.4528 269.6618 15.06405176238299
Epoch: 2024-12-25T12:37Z
Definitive object data (Epoch: 2024-12-25T12:37:44.116Z)
Latitude-0°
Longitude-95.85461°
Altitude548.08 km
Speed7.589 km/s
True Right ascension12h 32m 23s
True Declination0° 00' 00"
Sunlit
Object was in daylight at TLE epoch
Visualization TLE readout
Latitude-19.91399°
Longitude95.8247°
Altitude553.055 km
Speed7.585 km/s
Apparent Right ascension23h 44m 25s
Apparent Declination-32° 24' 13"
Sunlit
Object is in daylight
Visualization observer readout
Local Sidereal Time09:35:15
Azimuth275.942° WNW
Elevation-63.031°
Doppler factor1
Orbital elements
Apogee altitude548.415 km
Perigee altitude546.518 km
Semi-major axis6,925.604 km
Eccentricity0.0001369
Inclination53.0534°
RAAN188.0979°
Arg. of periapsis90.4528°
True anomaly269.64611°
Mean anomaly269.6618°
Eccentric anomaly269.65396°
Mean motion3.7658 °/min
BSTAR0.00007118
Orbital period95.6 mins
Loading maneuver chart data...
Loading historical data...
Loading historical data...
Loading historical data...
Loading historical data...
Loading historical data...
Loading historical data...
Loading historical data...

STARLINK-1656 Visibility forecast

Observer location: undefined°, undefined

Span
Click to sort rows by Start time (UTC) header in descending order
Start Az.
Max El. time (UTC)
Max El. Az.
Max El.
End time (UTC)
End Az.
6 mins2024-12-26 14:15:06.462Z178.499° S2024-12-26 14:18:06.462Z127.472° SE21.046°2024-12-26 14:21:06.462Z78.147° E
6 mins2024-12-26 15:55:06.462Z258.871° W2024-12-26 15:57:06.462Z313.447° NW37.542°2024-12-26 16:01:06.462Z41.408° NE
4 mins2024-12-26 17:36:06.462Z319.464° NNW2024-12-26 17:37:06.462Z336.025° NNW15.527°2024-12-26 17:40:06.462Z23.792° NE
5 mins2024-12-26 20:57:06.462Z342.508° N2024-12-26 20:59:06.462Z27.793° NE25.994°2024-12-26 21:02:06.462Z84.701° E
6 mins2024-12-26 22:36:06.462Z293.444° NW2024-12-26 22:39:06.462Z207.579° SW36.344°2024-12-26 22:42:06.462Z153.1° SSE
|